User: anonymous   Login
Location: Columbus
(29.5618°N, 96.6770°W)
Time: 12:25:20
(UTC-06:00)
Language:

Cosmos 2056 Rocket - Orbit

View from above orbital plane
View from above orbital plane
View from above satellite
View from above satellite

Ground track
Ground track

The orbit data is extracted from the following two-line orbital elements,

1 20433U 90004B   15025.89148155  .00000139  00000-0  56636-4 0  9239
2 20433 074.0368 159.1451 0040151 142.3417 001.2665 14.35769604309851
Epoch (UTC): 25 January 2015 21:23:44
Eccentricity: 0.0040151
inclination: 74.0368°
perigee height: 744 km
apogee height: 801 km
right ascension of ascending node: 159.1451°
argument of perigee: 142.3417°
revolutions per day: 14.35769604
mean anomaly at epoch: 1.2665°
orbit number at epoch: 30985

The dashed part of the orbit path shows where the satellite is in the earth's shadow,  

DLR